Regional Weather Roundup
Issued by NWS

Home | Current Version | Previous Version | Text Only | Print | Product List | Glossary Off
Versions: 1 2 3 4 5 6 7 8 9 10 11 12 13 14 15 16 17 18 19 20 21 22 23 24 25 26 27 28 29 30 31 32 33 34 35 36 37 38 39 40 41 42 43 44 45 46 47 48 49 50

000
ASUS43 KIND 251509
RWRIN

WEATHER ROUNDUP FOR INDIANA
NATIONAL WEATHER SERVICE INDIANAPOLIS IN
1100 AM EDT WED APR 25 2018

NOTE: "FAIR" INDICATES FEW OR NO CLOUDS BELOW 12,000 FEET WITH NO
SIGNIFICANT WEATHER AND/OR OBSTRUCTIONS TO VISIBILITY.

* - STATION DOES NOT REPORT WEATHER SUCH AS PRECIPITATION OR FOG.

+ - STATION NOT QUALITY CONTROLLED BY THE NATIONAL WEATHER SERVICE.
    USE DATA WITH CAUTION...ESPECIALLY DEWPOINT AND RELATIVE
    HUMIDITY OBSERVATIONS.

INZ001>003-010>013-019-020-251600-
NORTHWEST INDIANA

CITY           SKY/WX    TMP DP  RH WIND       PRES   REMARKS
GARY /AIRPORT/ MOSUNNY   46  36  66 N8G33     30.13R
KNOX *+        FAIR      54  37  54 N17G24    30.04S
LA PORTE +     FAIR      48  37  66 N13       30.07S
MICHIGAN CITY+ FAIR      45  36  70 N15G21    30.09S
MONTICELLO +   FAIR      52  39  61 N14       30.04R
RENSSELAER +   FAIR      52  32  46 N17G25    30.06S
VALPARAISO     FAIR      50  36  58 N13       30.08R

$$

LMZ046-743>745-251600-
SOUTHERN LAKE MICHIGAN

STATION/POSITION TIME  TEMP    WIND        PRES    WAVE
                       AIR SEA DIR/SP/G            HT
                 (UTC) (F)     (DEG/KT/KT) (MB)    (FT)
BURNS HARBOR     1440   40      10/ 17/ 20 1019.6S
MICHIGAN CITY    1440   40     350/ 18/ 21   N/A

$$

INZ004-005-014>016-021>024-251600-
NORTH CENTRAL INDIANA

CITY           SKY/WX    TMP DP  RH WIND       PRES   REMARKS
ELKHART        FAIR      55  37  50 N10G16    30.03S
GOSHEN         FAIR      54  41  61 N13       30.02R
LOGANSPORT +   FAIR      52  45  76 NW10      30.03S
PERU/GRISSOM   PTSUNNY   53  53 100 N9        30.01R
ROCHESTER +    FAIR      55  46  71 N12       30.03S
SOUTH BEND     FAIR      54  38  54 N13       30.05S
WARSAW +       CLOUDY    52  45  76 N9G18     30.02R

$$

INZ006>009-017-018-025>027-251600-
NORTHEAST INDIANA

CITY           SKY/WX    TMP DP  RH WIND       PRES   REMARKS
ANGOLA *+      CLOUDY    50  43  76 NW10      29.99
AUBURN +       CLOUDY    52  46  82 N9        30.00R
FORT WAYNE     PTSUNNY   55  49  80 N13       29.99R
HUNTINGTON +   CLOUDY    54  48  80 N15       30.00R
KENDALLVILLE + CLOUDY    51  42  72 N10G16    30.00

$$

INZ028-029-035-036-043>045-051>053-251600-
WEST CENTRAL INDIANA

CITY           SKY/WX    TMP DP  RH WIND       PRES   REMARKS
CRAWFORDSVL +  CLOUDY    46  46 100 N7        30.05R FOG
GREENCASTLE +  CLOUDY    50  46  87 N6        30.04S FOG
LAFAYETTE      PTSUNNY   51  44  77 N12       30.04S
TERRE HAUTE    CLOUDY    53  50  89 N5        30.04S FOG

$$

INZ030>032-037>040-046>048-054>057-064-065-251600-
CENTRAL INDIANA

CITY           SKY/WX    TMP DP  RH WIND       PRES   REMARKS
ANDERSON       PTSUNNY   55  48  76 N12G23    30.00R
COLUMBUS       CLOUDY    55  48  76 N13       30.01R
FRANKFORT +    CLOUDY    52  50  93 N8        30.05R
GREENWOOD *+     N/A     56  50  81 N13       30.01S
INDIANAPOLIS   FAIR      57  50  77 N9        30.01S
-EAGLE CREEK   PTSUNNY   55  49  80 N9        30.01S
KOKOMO +       CLOUDY    52  49  89 NW13      30.02S
MARION +       CLOUDY    54  49  85 N9        30.01R
MT COMFORT *+  PTSUNNY   55  54  94 N8        30.01S
SHELBYVILLE    CLOUDY    57  51  80 N12       29.99R
ZIONSVILLE +   CLOUDY    49  49  99 NW10      30.03R FOG

$$

INZ033-034-041-042-049-050-058-059-251600-
EAST CENTRAL INDIANA

CITY           SKY/WX    TMP DP  RH WIND       PRES   REMARKS
MUNCIE         CLOUDY    57  50  77 N12       29.99R
RICHMOND +     CLOUDY    52  52 100 N12       29.98R

$$

INZ060-061-067>069-081>083-085>088-251600-
SOUTHWEST INDIANA

CITY           SKY/WX    TMP DP  RH WIND       PRES   REMARKS
EVANSVILLE     FAIR      62  54  74 N10       30.03R
HUNTINGBURG +  FAIR      59  54  82 N7        30.02R
WASHINGTON +   PTSUNNY   58  52  80 N10       30.02S

$$

INZ062-063-066-070>080-084-089>092-251600-
SOUTH CENTRAL AND SOUTHEAST INDIANA

CITY           SKY/WX    TMP DP  RH WIND       PRES   REMARKS
BATESVILLE +   CLOUDY    55  54  94 MISG      29.99R
BEDFORD +      PTSUNNY   57  50  77 N8        30.00R
BLOOMINGTON    CLOUDY    56  51  84 N15       30.01S
FRENCH LICK *+ CLOUDY    55  50  82 CALM      30.01S
MADISON *+     CLOUDY    55  50  82 N8        30.01R
NORTH VERNON + CLOUDY    55  50  82 N10       30.00R
SEYMOUR +      CLOUDY    59  50  72 N9        30.00R

$$




USA.gov is the U.S. government's official web portal to all federal, state and local government web resources and services.